Regional Weather Roundup
Issued by NWS

Home | Current Version | Previous Version | Text Only | Print | Product List | Glossary On
Versions: 1 2 3 4 5 6 7 8 9 10 11 12 13 14 15 16 17 18 19 20 21 22 23 24 25 26 27 28 29 30 31 32 33 34 35 36 37 38 39 40 41 42 43 44 45 46 47 48 49 50
000
ASUS42 KTBW 201718
RWRFL
FLORIDA REGIONAL WEATHER ROUNDUP
NATIONAL WEATHER SERVICE TAMPA BAY RUSKIN FL
100 PM EDT FRI OCT 20 2017

NOTE: "FAIR" INDICATES FEW OR NO CLOUDS BELOW 12,000 FEET WITH NO
SIGNIFICANT WEATHER AND/OR OBSTRUCTIONS TO VISIBILITY.

FLZ001>010-012>015-112-114-115-201800-
PANHANDLE FLORIDA

CITY           SKY/WX    TMP DP  RH WIND       PRES   REMARKS
PENSACOLA      CLOUDY    82  59  45 E7        30.17F
PENSACOLA NAS  CLOUDY    80  61  52 E12       30.16F
MILTON NAS     MOSUNNY   80  60  50 E12       30.18
CRESTVIEW      SUNNY     82  59  45 NE6       30.21F
DUKE FIELD     PTSUNNY   82  54  37 E7        30.18F
VALPARAISO     PTSUNNY   81  51  34 NE9       30.18F
MARY ESTHER    PTSUNNY   82  55  39 E13       30.16
PANAMA CITY    PTSUNNY   80  60  50 VRB6      30.17F
TYNDALL AFB    CLOUDY    81  66  61 E9        30.17F
APALACHICOLA   CLOUDY    78  68  71 E12       30.17F

STATION/POSITION SKY/WX   TEMP    WIND        PRES    WAVE   SWELL
                          AIR SEA DIR/SP/G            HT/PER HT/PER
                          (F)     (DEG/KT/KT) (MB)    (FT/S) (FT/S)
30.1N   87.6W              76 79   80/ 17/ 23 1020.8F   5/ 6
29.2N   88.2W              80 82   80/ 19/ 23 1019.9F   6/ 6
28.8N   86.0W              79 81   90/ 16/ 19 1019.6F   5/ 7
PANAMA CITY BEAC           75 78   50/  9/ 14 1022.8
TOWER C                    75      80/ 18/ 19 1021.5F
28.5N   84.5W              78 81   80/ 17/ 19 1019.6F   4/ 6

$$
FLZ011-016>038-118-127-128-134-139-239-201800-
NORTH FLORIDA

CITY           SKY/WX    TMP DP  RH WIND       PRES   REMARKS
MARIANNA       SUNNY     81  52  36 NE8       30.19F
TALLAHASSEE    MOSUNNY   82  65  56 E8        30.18F
PERRY          SUNNY     83  63  51 E7G16     30.18F
LIVE OAK       MOSUNNY   86  66  51 NE7       30.20F
CROSS CITY     SUNNY     83  64  50 NE8       30.20F
LAKE CITY      FAIR      79  66  65 E3G16     30.19F
GAINESVILLE    MOSUNNY   81  65  58 E10       30.19F
WILLISTON      SUNNY     86  66  51 VRB7G16   30.15F
PALATKA        FAIR      82  68  61 E16       30.17F
MAYPORT NAS    PTSUNNY   80  72  76 N18       30.19F
JACKSONVILLE   PTSUNNY   80  70  71 NE15      30.19F
JAX NAS        PTSUNNY   82  70  66 NE16      30.19F
JAX CECIL      PTSUNNY   82  70  65 NE9G18    30.18F
ST AUGUSTINE   SUNNY     80  72  76 N17       30.18F
PALM COAST     PTSUNNY   81  64  57 E13G20    30.16F

STATION/POSITION SKY/WX   TEMP    WIND        PRES    WAVE   SWELL
                          AIR SEA DIR/SP/G            HT/PER HT/PER
                          (F)     (DEG/KT/KT) (MB)    (FT/S) (FT/S)
SHELL POINT      NOT AVBL
KEATON BEACH               80      50/  8/ 10 1021.0F
CEDAR KEY                  78      80/ 11/ 12 1021.6F
FERNANDINA                 76 75  360/ 11/ 16 1024.1
30.7N   81.3W                 77                N/A     5/10
MAYPORT                    76 77   30/ 16/ 19 1023.4
31.4N   80.9W              74 77   50/ 17/ 21 1022.7F   4/ 5   2/10
ST AUGUSTINE               77 78   20/ 16/ 17 1021.9F

$$
FLZ040-043>046-052-053-057-058-063-144-201800-
INTERIOR CENTRAL FLORIDA

CITY           SKY/WX    TMP DP  RH WIND       PRES   REMARKS
OCALA          MOSUNNY   83  62  49 NE12G18   30.16F
THE VILLAGES     N/A     82  68  61 MISG      30.05F
LEESBURG       SUNNY     86  62  44 E14G23    30.15F
SANFORD        MOSUNNY   84  64  50 E17G23    30.14F
ORLANDO INTL   PTSUNNY   82  65  56 E16       30.13F
KISSIMMEE      PTSUNNY   85  67  54 NE14G22   30.13F
WINTER HAVEN     N/A    N/A N/A N/A MISG      30.12F
LAKELAND       MOSUNNY   82  66  57 E16       30.12F
BARTOW         PTSUNNY   82  66  57 NE15G22   30.11F
SEBRING        FAIR      87  69  53 E17       30.09F
OKEECHOBEE     PTSUNNY   84  72  65 NE10G22   30.07F

$$
FLZ041-047-054-059-064-141-147-201800-
EAST CENTRAL FLORIDA

CITY           SKY/WX    TMP DP  RH WIND       PRES   REMARKS
ORMOND BEACH   MOSUNNY   82  68  61 E12G20    30.16F
DAYTONA BEACH  MOSUNNY   83  71  67 E17G23    30.15F
DELAND         MOSUNNY   82  68  61 NE16      30.14F
NEW SMYRNA BEA MOSUNNY   84  64  51 E15       30.17S
JFK SPACE CTR  MOSUNNY   84  70  61 E14       30.13F
TITUSVILLE     MOSUNNY   84  66  54 E23       30.14
CAPE CANAVERAL PTSUNNY   82  69  64 NE14      30.11F
PATRICK AFB    MOSUNNY   82  71  70 NE14      30.11F
MELBOURNE      PTSUNNY   84  71  65 NE16      30.11F
VERO BEACH     PTSUNNY   83  72  69 NE18      30.09F
FT PIERCE      CLOUDY    82  73  74 NE8G24    30.09F

STATION/POSITION SKY/WX   TEMP    WIND        PRES    WAVE   SWELL
                          AIR SEA DIR/SP/G            HT/PER HT/PER
                          (F)     (DEG/KT/KT) (MB)    (FT/S) (FT/S)
28.5N   80.2W              81 81   60/ 16/ 19 1019.9F   6/ 8
TRIDENT PIER               81 81   50/ 13/ 17 1022.3
27.5N   80.2W                 81                N/A     6/ 9   2/11

$$
FLZ050-056-061-142-242-148-248-149-249-151-251-155-255-
160-260-201800-
WEST CENTRAL FLORIDA

CITY           SKY/WX    TMP DP  RH WIND       PRES   REMARKS
CRYSTAL RIVER  FAIR      82  63  51 E15       30.14F
INVERNESS      PTSUNNY   86  66  51 NE9       30.14F
BROOKSVILLE    SUNNY     84  64  50 NE16G24   30.12F
CLEARWATER AIR FAIR      82  64  54 E10G16    30.09F
ST PETE CLEARW MOSUNNY   86  69  56 E13       30.09F
TAMPA INTL     MOSUNNY   86  66  51 NE10G18   30.10F
TAMPA EXEC     MOSUNNY   86  68  54 NE10G16   30.11F
PLANT CITY     MOSUNNY   86  66  51 E13G18    30.12F
MACDILL AFB    MOSUNNY   84  64  51 NE10      30.10F
PETER O KNIGHT MOSUNNY   82  68  61 NE15G22   30.10F
ST PETERSBURG  SUNNY     81  69  67 E18       30.08F
SARASOTA       SUNNY     86  69  56 E14G26    30.06F
VENICE         FAIR      86  70  58 NE16G22   30.07F

STATION/POSITION SKY/WX   TEMP    WIND        PRES    WAVE   SWELL
                          AIR SEA DIR/SP/G            HT/PER HT/PER
                          (F)     (DEG/KT/KT) (MB)    (FT/S) (FT/S)
CLEARWATER BEACH           80 78   50/ 11/ 13 1019.9
MIDDLE TAMPA BAY           79      70/ 16/ 17 1019.6
VENICE                     84 81   60/ 14/ 19 1018.2F

$$
FLZ066-069-070-075>078-162-262-165-265-201800-
SOUTHWEST FLORIDA AND KEYS

CITY           SKY/WX    TMP DP  RH WIND       PRES   REMARKS
PUNTA GORDA    PTSUNNY   86  71  60 E17       30.08F
FT MYERS       PTSUNNY   82  72  71 E15G24    30.04F
SOUTHWEST INTL PTSUNNY   85  74  69 E13G23    30.05F
NAPLES         PTSUNNY   85  73  67 NE18      30.02F
MARCO ISLAND     N/A     87  74  64 E16G22    30.03F HX  95
IMMOKALEE      PTSUNNY   86  73  66 NE14G24   30.06F
MARATHON       MOSUNNY   86  73  65 E15G25    30.00F
KEY WEST NAS   LGT RAIN  83  77  82 E15       30.01F
KEY WEST INTL  MOSUNNY   86  74  67 E17G24    30.01F

STATION/POSITION SKY/WX   TEMP    WIND        PRES    WAVE   SWELL
                          AIR SEA DIR/SP/G            HT/PER HT/PER
                          (F)     (DEG/KT/KT) (MB)    (FT/S) (FT/S)
NAPLES                        82   60/  7/ 14 1017.7
DRY TORTUGAS               82      70/ 16/ 17 1016.5F
SAND KEY                   81                 1016.7F
MOLASSES REEF              83 83   90/ 17/ 19 1016.5F

$$
FLZ067-068-071>074-168-172>174-201800-
SOUTHEAST FLORIDA

CITY           SKY/WX    TMP DP  RH WIND       PRES   REMARKS
W PALM BEACH   MOSUNNY   86  73  65 NE18G28   30.06F
FT LAUDER-EXEC MOSUNNY   85  75  72 E20G28    30.04F
FT LAUDERDALE  PTSUNNY   84  76  76 E18G24    30.03F
POMPANO BEACH  MOSUNNY   86  74  67 E18G24    30.04F
PEMBROKE PINES PTSUNNY   87  73  62 NE15G23   30.05F
OPA LOCKA      PTSUNNY   86  75  69 E16       30.04F HX  95
MIAMI          PTSUNNY   87  73  62 E14       30.03F
WEST KENDALL   PTSUNNY   85  73  67 E18       30.03F
HOMESTEAD      SUNNY     86  77  75 NE17      30.02F HX  98

STATION/POSITION SKY/WX   TEMP    WIND        PRES    WAVE   SWELL
                          AIR SEA DIR/SP/G            HT/PER HT/PER
                          (F)     (DEG/KT/KT) (MB)    (FT/S) (FT/S)
PORT EVERGLADES            83      70/ 13/ 18 1017.7
VIRGINIA KEY               83 83   40/ 12/ 15 1017.2
LAKE WORTH                 81 82   60/ 18/ 23 1019.3
FOWEY ROCKS                82 83   60/ 17/ 18 1017.4F
SETTLEMENT POINT           81      60/ 20/ 23 1017.8F

$$




USA.gov is the U.S. government's official web portal to all federal, state and local government web resources and services.